This is the latest recevied weather packets stored in our database for station/object KD2PO-13. If no packets are shown the sender has not sent any weather packets the latest 1 day(s).
| Time | Temp. | Humidity | Pressure | Rain* | Wind** | Luminosity | Snow |
|---|---|---|---|---|---|---|---|
| 1777995619 | 21.67° C | 50% | 0 hPa | 0 mm | 3.13 m/s, 248° | - | - |
| 1777995319 | 22.22° C | 50% | 0 hPa | 0 mm | 6.26 m/s, 286° | - | - |
| 1777995019 | 22.22° C | 49% | 0 hPa | 0 mm | 3.13 m/s, 267° | - | - |
| 1777994719 | 22.22° C | 50% | 0 hPa | 0 mm | 3.58 m/s, 243° | - | - |
| 1777994419 | 22.22° C | 51% | 0 hPa | 0 mm | 4.02 m/s, 241° | - | - |
| 1777994119 | 22.22° C | 51% | 0 hPa | 0 mm | 4.02 m/s, 230° | - | - |
| 1777993819 | 22.22° C | 51% | 0 hPa | 0 mm | 4.02 m/s, 280° | - | - |
| 1777993518 | 22.22° C | 52% | 0 hPa | 0 mm | 2.68 m/s, 217° | - | - |
| 1777993218 | 21.67° C | 51% | 0 hPa | 0 mm | 4.02 m/s, 221° | - | - |
| 1777992918 | 21.67° C | 52% | 0 hPa | 0 mm | 3.58 m/s, 241° | - | - |
| 1777992318 | 21.67° C | 53% | 0 hPa | 0 mm | 2.68 m/s, 228° | - | - |
| 1777992018 | 21.67° C | 54% | 0 hPa | 0 mm | 2.24 m/s, 215° | - | - |
| 1777991718 | 21.67° C | 53% | 0 hPa | 0 mm | 4.02 m/s, 190° | - | - |
| 1777991118 | 21.67° C | 55% | 0 hPa | 0 mm | 2.24 m/s, 219° | - | - |
| 1777990818 | 21.11° C | 55% | 0 hPa | 0 mm | 4.47 m/s, 193° | - | - |
| 1777990518 | 21.11° C | 55% | 0 hPa | 0 mm | 2.68 m/s, 217° | - | - |
| 1777989919 | 20.56° C | 55% | 0 hPa | 0 mm | 4.02 m/s, 192° | - | - |
| 1777989319 | 20.56° C | 56% | 0 hPa | 0 mm | 3.58 m/s, 212° | - | - |
| 1777988718 | 20.56° C | 55% | 0 hPa | 0 mm | 4.92 m/s, 208° | - | - |
| 1777988118 | 20° C | 57% | 0 hPa | 0 mm | 4.92 m/s, 184° | - | - |
| 1777987818 | 20° C | 59% | 0 hPa | 0 mm | 2.68 m/s, 186° | - | - |
| 1777987518 | 20° C | 58% | 0 hPa | 0 mm | 4.02 m/s, 184° | - | - |
| 1777987218 | 19.44° C | 59% | 0 hPa | 0 mm | 3.58 m/s, 199° | - | - |
| 1777986918 | 19.44° C | 58% | 0 hPa | 0 mm | 4.92 m/s, 206° | - | - |
| 1777986618 | 19.44° C | 59% | 0 hPa | 0 mm | 4.02 m/s, 225° | - | - |
* Rain latest hour (hover to see other rain measurements)
** Current wind speed in m/s (hover to see current wind gust speed)